Location: Newark
(54.6833°N, 25.2833°E)
Time: 02:20:35
(UTC+00:00)

A-11 Canister half - Pass Details

Date: 21 January 2021
Orbit: 1525 x 1684 km, 47.3° (Epoch: 05 March)

Event Time Altitude Azimuth Distance (km) Brightness Sun altitude
Rises 17:39:14 0° 270° (W) 4,735 12.9 -25.9°
Reaches altitude 10° 17:42:21 10° 266° (W) 3,769 12.0 -26.3°
Maximum altitude 17:51:30 52° 194° (SSW) 1,933 9.5 -27.7°
Enters shadow 17:55:17 36° 143° (SE) 2,377 9.6 -28.2°
